Location: Cruquius
(52.3348°N, 4.6319°E)
Time: 12:35:59
(UTC+00:00)

Terra - Visible Passes

Search period start: 20 September 2021 00:00
Search period end: 30 September 2021 00:00
Orbit: 701 x 703 km, 98.2° (Epoch: 20 September)

Date Brightness Start Highest point End Pass type
(mag) Time Alt. Az. Time Alt. Az. Time Alt. Az.
20 Sep 3.8 19:31:57 13° ENE 19:32:39 13° NE 19:34:56 10° NNE visible
20 Sep 2.6 21:10:50 47° N 21:10:50 47° N 21:14:19 10° N visible
20 Sep 4.3 22:49:43 16° WNW 22:49:43 16° WNW 22:51:13 10° NW visible
21 Sep 3.2 20:15:19 26° NE 20:15:19 26° NE 20:18:48 10° N visible
21 Sep 3.4 21:54:12 33° NW 21:54:12 33° NW 21:57:03 10° NNW visible
22 Sep 4.0 19:19:47 11° ENE 19:20:35 11° NE 19:21:55 10° NNE visible
22 Sep 2.8 20:58:41 40° NNE 20:58:41 40° NNE 21:02:00 10° N visible
22 Sep 4.2 22:37:34 18° NW 22:37:34 18° NW 22:39:17 10° NW visible
23 Sep 3.4 20:03:09 21° NE 20:03:09 21° NE 20:06:20 10° N visible
23 Sep 3.3 21:42:02 35° NNW 21:42:02 35° NNW 21:44:51 10° NNW visible
24 Sep 3.0 20:46:31 34° NNE 20:46:31 34° NNE 20:49:40 10° N visible
24 Sep 4.1 22:25:25 20° NW 22:25:25 20° NW 22:27:15 10° NNW visible
25 Sep 3.6 19:51:00 18° NE 19:51:00 18° NE 19:53:48 10° NNE visible
25 Sep 3.3 21:29:53 34° NNW 21:29:53 34° NNW 21:32:36 10° NNW visible
26 Sep 3.2 20:34:21 29° NNE 20:34:21 29° NNE 20:37:17 10° N visible
26 Sep 4.1 22:13:15 22° NW 22:13:15 22° NW 22:15:09 10° NNW visible
27 Sep 3.8 19:38:50 15° NE 19:38:50 15° NE 19:41:10 10° NNE visible
27 Sep 3.3 21:17:43 33° N 21:17:43 33° N 21:20:20 10° NNW visible
27 Sep 4.7 22:56:37 11° NW 22:56:37 11° NW 22:57:00 10° NW visible
28 Sep 3.4 20:22:12 25° NNE 20:22:12 25° NNE 20:24:53 10° N visible
28 Sep 4.0 22:01:06 23° NW 22:01:06 23° NW 22:03:00 10° NNW visible
29 Sep 3.9 19:26:40 12° NE 19:26:40 12° NE 19:28:21 10° NNE visible
29 Sep 3.4 21:05:34 30° N 21:05:34 30° N 21:08:01 10° N visible
29 Sep 4.6 22:44:27 13° NW 22:44:27 13° NW 22:45:07 10° NW visible
